Regional Weather Roundup
Issued by NWS

Home | Current Version | Previous Version | Graphics & Text | Print | Product List | Glossary On
Versions: 1 2 3 4 5 6 7 8 9 10 11 12 13 14 15 16 17 18 19 20 21 22 23 24 25 26 27 28 29 30 31 32 33 34 35 36 37 38 39 40 41 42 43 44 45 46 47 48 49 50
000
ASUS43 KMKX 230900
RWRWI

WISCONSIN REGIONAL WEATHER ROUNDUP
NATIONAL WEATHER SERVICE MILWAUKEE/SULLIVAN WI
400 AM CDT WED MAY 23 2018

NOTE: "FAIR" INDICATES FEW OR NO CLOUDS BELOW 12,000 FEET WITH NO
SIGNIFICANT WEATHER AND/OR OBSTRUCTIONS TO VISIBILITY.

WIZ001-002-006>008-014>016-023>028-231000-
NORTHWEST WISCONSIN

CITY           SKY/WX    TMP DP  RH WIND       PRES   REMARKS
SUPERIOR ARPT  FAIR      54  53  99 CALM      30.07S
ASHLAND        FAIR      51  50  96 S5        30.08R
HAYWARD        FAIR      47  45  93 N3        30.11R
SIREN            N/A     48  47  94 CALM      30.09S
CUMBERLAND     FOG       48  46  93 CALM      30.11R VSB 1/4
RICE LAKE      FAIR      51  50  98 CALM      30.13R
CHETEK         FOG       49  49 100 CALM      30.11R VSB 1/4
LADYSMITH      FOG       51  50  97 SE5       30.13R VSB 1
EAU CLAIRE     NOT AVBL
MENOMONIE      FOG       52  52 100 CALM      30.11R VSB 1/4
NEW RICHMOND   FAIR      55  54  95 CALM      30.10S FOG
OSCEOLA        FAIR      56  54  93 E5        30.12R
$$

WIZ003>005-009-010-017-018-231000-
NORTH CENTRAL WISCONSIN

CITY           SKY/WX    TMP DP  RH WIND       PRES   REMARKS
MANITOWISH WTR MOCLDY    46  46 100 CALM      30.11S FOG
ARBOR VITAE    FAIR      52  50  93 CALM      30.11S
WOODRUFF       FAIR      52  50  93 CALM      30.11S
RHINELANDER    FOG       51  50  96 CALM      30.13R VSB 3/4
EAGLE RIVER    FOG       48  48 100 CALM      30.11R VSB 3/4
LAND O LAKES   FAIR      42  41  96 CALM      30.13R
PHILLIPS       FOG       50  50 100 CALM      30.11S VSB 1/4
TOMAHAWK       FAIR      46  46  97 CALM      30.13R FOG
MEDFORD        FOG       50  50  99 CALM      30.12R VSB 1/4
MERRILL        CLOUDY    48  48 100 CALM      30.12S FOG
$$

WIZ029-030-035-036-043>047-231000-
CENTRAL WISCONSIN

CITY           SKY/WX    TMP DP  RH WIND       PRES   REMARKS
WAUSAU         FAIR      56  56 100 S6        30.11R FOG
MOSINEE        FOG       52  52 100 CALM      30.13S VSB<1/4
MARSHFIELD     FOG       51  51 100 CALM      30.12R VSB 1/4
STEVENS POINT  CLOUDY    49  49 100 CALM      30.13S FOG
WAUPACA        FAIR      57  56  98 CALM      30.12R
WAUTOMA        FAIR      51  50  96 CALM      30.13R
WISC RAPIDS    FOG       50  50 100 CALM      30.14R VSB 1/4
CAMP DOUGLAS   FOG       47  47 100 CALM      30.13R VSB 1/2
$$

WIZ011>013-019>022-031-037>040-048>050-231000-
NORTHEAST WISCONSIN

CITY           SKY/WX    TMP DP  RH WIND       PRES   REMARKS
ANTIGO         FOG       50  50 100 CALM      30.11F VSB<1/4
SHAWANO        FAIR      58  56  91 CALM      30.09S
OCONTO         FAIR      54  54  98 CALM      30.07S
STURGEON BAY   FAIR      58  56  93 W6        30.08R
GREEN BAY      FAIR      59  56  89 SW5       30.10R
MANITOWOC      FAIR      59  57  93 W6        30.11R
APPLETON       FAIR      55  55 100 W9        30.09S
CLINTONVILLE   FAIR      58  55  91 W5        30.10R
OSHKOSH        FAIR      57  56  96 W5        30.11R
$$

WIZ032>034-041-042-053>061-231000-
SOUTHWEST WISCONSIN

CITY           SKY/WX    TMP DP  RH WIND       PRES   REMARKS
LA CROSSE      MOCLDY    55  54  96 E5        30.11R
SPARTA         FOG       47  47 100 CALM      30.12S VSB<1/4
VIROQUA        FAIR      56  56 100 S6        30.13R
BOSCOBEL       FOG       56  55  97 CALM      30.12R VSB 1/4
PRAIRIE DU CHI FAIR      55  54  95 E3        30.11S
PLATTEVILLE    FAIR      57  57 100 E7        30.12S
$$

WIZ056-057-062-063-064-067-068-231000-
SOUTH CENTRAL WISCONSIN

CITY           SKY/WX    TMP DP  RH WIND       PRES   REMARKS
REEDSBURG      FOG       51  51 100 CALM      30.12R VSB 1/4
BARABOO/DELLS  FOG       51  49  95 CALM      30.12S VSB<1/4
LONE ROCK      NOT AVBL
MINERAL POINT  FAIR      57  57 100 CALM      30.12S
MADISON        FOG       51  51 100 CALM      30.12R VSB 1/2
MIDDLETON      MOCLDY    53  53 100 CALM      30.12S
WATERTOWN      FOG       50  50 100 CALM      30.12R VSB 1
MONROE         FAIR      59  55  88 CALM      30.12R
JANESVILLE     FOG       54  54 100 CALM      30.12R VSB 1/2
$$

WIZ051-052-058>065-066-070>072-231000-
SOUTHEAST WISCONSIN

CITY           SKY/WX    TMP DP  RH WIND       PRES   REMARKS
MILWAUKEE      FAIR      53  51  93 CALM      30.12R
WAUKESHA       FAIR      52  52 100 W3        30.13S
MILWAUKEE/TIMM FOG       52  48  87 CALM      30.13R VSB 1
RACINE         FAIR      50  49  96 W3        30.13R FOG
BURLINGTON       N/A     50  50  98 CALM      30.12S FOG
KENOSHA        FOG       50  49  96 CALM      30.12R VSB 1/2
FOND DU LAC    FOG       52  51  97 S3        30.12S VSB 1/4
SHEBOYGAN      FAIR      58  56  93 W5        30.11R
WEST BEND      FOG       50  50 100 CALM      30.12R VSB 1/2
JUNEAU         FOG       51  51  99 CALM      30.13S VSB<1/4
$$

LSZ147-162-231000-
LAKE SUPERIOR

STATION/POSITION TIME  TEMP    WIND        PRES    WAVE
                       AIR SEA DIR/SP/G            HT/PER
                 (UTC) (F)     (DEG/KT/KT) (MB)    (FT/S)
W MID LAKE BUOY  0750   43 36  250/  6/  6 1018.0R   0
DEVILS ISLAND    0800   61     250/ 18/ 19 1017.8F
SAXON HARBOR     0830   55     200/  4/  5 1017.6R
$$

LMZ867-665-643>646-231000-
LAKE MICHIGAN

STATION/POSITION TIME  TEMP    WIND        PRES    WAVE
                       AIR SEA DIR/SP/G            HT/PER
                 (UTC) (F)     (DEG/KT/KT) (MB)    (FT/S)
N MID LAKE BUOY  0840   39 37     CALM     1019.0R
NORTHPORT PIER   0840   48      CALM  /  1 1018.3R
KEWAUNEE LAKESHO 0824   61     260/  4/  8 1017.9
SHEBOYGAN LAKESH 0800   61     280/ 11/ 12 1019.1R
PORT WASHINGTON  0830   60     300/  8/ 12 1020.0S
ATWATER BUOY     0807   53 48   60/  2/  2 1019.7    0
MILWAUKEE LAKESH 0820   58      CALM  /  1   N/A
S MID LAKE BUOY  0750   42 39  220/  6/  8 1020.3S   0
KENOSHA   LAKESH 0800   52                 1019.6
$$

TC  - TEMPERATURE IN CELSIUS
VSB - VISIBILITY IN STATUTE MILES
WCI - WIND CHILL INDEX
HX  - HEAT INDEX





USA.gov is the U.S. government's official web portal to all federal, state and local government web resources and services.